Kezdőlap
METAR-TAF:

METAR-TAF

Repülőterek :

Quentin Aanenson Field

Luverne, Minnesota, Amerikai Egyesült Államok

földrajzi szélesség: 43-37-16N, földrajzi hosszúság: 096-12-58W, magasság: 436 m

Jelenlegi meteorológiai megfigyelések

A jelentés 22 perccel ezelõtt készült, 19:51 UTC
Északnyugati szél 8 kt széllökések: 14 kt
Hőmérséklet 24°C
Páratartalom 74%
Légköri nyomás 1010 hPa
Látótávolság: 16.1 km
Borult 1900 lábon

METAR: KLYV 221951Z AUTO 31008G14KT 10SM OVC019 24/19 A2982 RMK AO2

Idő: 15:13 (20:13 UTC)


TAF: hiányzik

Meteorológiai megfigyelések és előrejelzések több, mint 4000 repülőtéren (METAR és TAF jelentéseket).

A térképen piros és sárga pontok jelzik az elérhető meteorológiai állomásokat.

Mozgassa az egeret a pont fölött, hogy megjelenjen az állomás neve.

Azután kattintson az időjárási megfigyelések és előrejelzések megtekintéséhez.

A térkép megváltoztatása: kattintson a fekete keresztel jelölt zöld gombra ráközelítéshez, a vonallal jelölt zöld gombra távolításhoz, vagy a zöld nyilakra a szomszédos térképek eléréséhez.


METAR-TAF: